Find Firefly 3

NORAD ID: 62710 Int'l Des: 2025-009 Owner: PIXX Country: IN operational
LEOCIRCULARRETROGRADESSO

实时位置

正在加载3D地球...

关于 Firefly 3

正在加载描述...

即将过境

Passes for default location (London). Set your location on the main map for personalized predictions.

高度历史

Loading altitude history...

两行轨道根数

1 62710U 25009DF 26105.91163850 .00000665 00000-0 69584-4 0 9992
2 62710 97.7069 185.3692 0004838 31.7411 328.4099 14.92847848 68048
Epoch: Apr 15, 2026 • Age: 10 hours

当前状态

高度 601.0 km
速度 7.57 km/s
星下点 81.33°N, 103.98°E
发射日期 Jan 14, 2025
运行时间 1.2 years
类型 other

技术详情

分类 Payload
质量 60.00 kg
干质量 60.00 kg
总质量 60.00 kg
长度 0.50 m
直径 0.30 m
跨度 2.00 m
形状 Box + 2 pan
制造商 PIXX
平台类型 Firefly
阶段状态 In Orbit
所有者/国家 PIXX/IN

Most Searched